sat.trackr.live / text

‹ back to catalog

HERMES-5

NORAD 63834 · 2025-052BQ

PAYLOAD ACTIVE UNKNOWN

§ Identity

Operator
Country
IT
Launch date
2025-03-15
Launch site
AFWTR
Launch vehicle
Mass (kg)
RCS (m²)

External: N2YO · Heavens-Above · Gunter

§ Orbital elements

Epoch: 2026-05-25T03:22:53.544000Z

Period
94.25 min
Inclination
97.3998°
Eccentricity
0.0003273
Mean motion
15.27913102 rev/d
Perigee alt
479.8 km
Apogee alt
484.3 km
Semi-major
6,860.2 km
B*
3.3835e-4
RAAN
39.7311°
Arg perigee
202.2889°
Mean anomaly
157.8209°
Rev number
6,643

§ Raw data

HERMES-51 63834U 25052BQ  26145.14089750  .00009147  00000+0  33835-3 0  99952 63834  97.3998  39.7311 0003273 202.2889 157.8209 15.27913102 66433

JSON: /api/v1/satellites/63834 · /tle

For live sub-satellite position, see the globe view (requires WebGL).

§ Visibility from observer

Set your observer location to see the next 7 days of passes ≥ 10°. The values pass through the URL so the page stays shareable.

No JS? Fill the form by hand. The geolocation button needs JavaScript.

§ Radio — SatNOGS DB

ModeDescriptionDownlinkUplink
GFSK Mode U - Transmitter 401.500 MHz

1 transmitter · refreshed weekly from db.satnogs.org